World > North America > United States > Oregon

West Slope, Oregon Regional Weather

Lat: 45.50N, Lon: 122.76W
Wx Zone: ORZ006Web Search

Pass this page to a friend. Tell them to point their camera at the QR Code near the bottom of this page.

Feedback


°F Click to change West Slope hourly weather to Imperial units.Click to change West Slope hourly weather to Metric units. °C
West Slope Weather Map
UTC Time: 5/9/2021, 06:44
Your Time:

West Slope, OR Regional Weather

Expires:202105090600;;822026
ASUS46 KPQR 090510
RWROR 

OREGON REGIONAL WEATHER ROUNDUP
NATIONAL WEATHER SERVICE PORTLAND OR
1000 PM PDT SAT MAY 08 2021

NOTE: "FAIR" INDICATES FEW OR NO CLOUDS BELOW 12,000 FEET WITH
NO SIGNIFICANT WEATHER AND/OR OBSTRUCTIONS TO VISIBILITY.


ORZ001>013-090600-
NORTHWEST OREGON

  
CITY           SKY/WX    TMP DP  RH WIND       PRES   REMARKS
ASTORIA        CLOUDY    50  48  93 CALM      30.34S                  
TILLAMOOK      CLOUDY    50  46  87 CALM      30.37F                  
NEWPORT        CLOUDY    50  46  87 CALM      30.40S FOG              
FLORENCE       FAIR      49  46  87 CALM      30.36F                  
PORTLAND       CLOUDY    56  43  61 N6        30.34S                  
VANCOUVER WA   CLOUDY    56  41  57 N5        30.34R                  
SCAPPOOSE      CLOUDY    55  44  66 N3        30.34R                  
HILLSBORO      CLOUDY    53  44  71 N3        30.33S                  
AURORA         CLOUDY    55  44  66 CALM      30.34S                  
MCMINNVILLE    CLOUDY    53  44  71 W5        30.34S                  
SALEM          CLOUDY    55  42  61 NW8       30.34R                  
CORVALLIS      CLOUDY    51  45  79 NW10      30.35S                  
EUGENE         MOCLDY    53  44  71 N7        30.34R                  
CRESWELL       MOCLDY    48  45  87 CALM      30.32S                  
$$


SKY/WX - Weather  TMP - Temperature  DP - Dew Point  RH - Relative Humidity
WIND - Wind Direction/Speed PRES - Barometric Pressure VSB - Visibility
WCI - Wind Chill Index E13G22 Wind - East Wind 13 mph/Gusts of 22 mph